Flag for Germany Weather past 2 weeks in Schloss Holte-Stukenbrock, North Rhine-Westphalia, Germany

Now
52 °F

Overcast.


Feels Like: 51 °F
Forecast: 48 / 54 °F
Wind: 3 mph from South

Location: Bad Lippspringe

Current Time: Oct 24, 2014 at 9:12:49 AM

Latest Report: Oct 24, 2014 at 9:00 AM


Visibility: 11 mi

Pressure: 30.19 "Hg

Humidity: 79%

Dew point: 45 °F

Location of Schloss Holte-StukenbrockLocation

Historic Weather in Schloss Holte-Stukenbrock — Graph

°F

Schloss Holte-Stukenbrock temperature yesterday

Maximum temperature yesterday: 53 °F (at 5:00 PM)
Minimum temperature yesterday: 46 °F (at 9:00 AM)
Average temperature yesterday: 49 °F

Past Weeks' High & Low Weather Summary

 TemperatureHumidityPressure
High74 °F (Oct 19, 3:00 PM)99% (Oct 11, 8:00 AM)30.24 "Hg (Oct 11, 8:00 AM)
Low43 °F (Oct 22, 4:00 AM)54% (Oct 14, 3:00 PM)29.44 "Hg (Oct 21, 6:00 PM)
Average56 °F84%29.90 "Hg
* Reported Oct 9 7:00 AM — Oct 24 7:00 AM, Schloss Holte-Stukenbrock, Weather by CustomWeather, © 2014

Note: Actual official high and low records may vary slightly from our data, if they occured in-between our weather recording intervals... More about our weather records

Advertising

Schloss Holte-Stukenbrock weather history for previous 24 hours

 ConditionsComfort  
Time TempWeatherWind HumidityBarometerVisibility
7:00 AM
Oct 24
51 °FOvercast.1 mph85%30.18 "Hg9 mi
6:00 AM50 °FOvercast.1 mph88%30.18 "Hg8 mi
5:00 AM51 °FOvercast.1 mph88%30.19 "Hg7 mi
4:00 AM50 °FFog.No wind94%30.20 "Hg4 mi
3:00 AM50 °FOvercast.1 mph89%30.20 "Hg6 mi
2:00 AM50 °FOvercast.1 mph90%30.21 "Hg6 mi
1:00 AM51 °FOvercast.1 mph84%30.21 "Hg6 mi
12:00 AM51 °FOvercast.1 mph86%30.21 "Hg6 mi
11:00 PM
Oct 23
51 °FOvercast.1 mph84%30.22 "Hg5 mi
10:00 PM52 °FOvercast.1 mph83%30.22 "Hg5 mi
9:00 PM52 °FFog.2 mph83%30.22 "Hg4 mi
8:00 PM51 °FOvercast.1 mph85%30.22 "Hg5 mi
7:00 PM52 °FOvercast.2 mph85%30.21 "Hg6 mi
6:00 PM53 °FOvercast.1 mph84%30.21 "Hg6 mi
5:00 PM53 °FOvercast.2 mph81%30.21 "Hg6 mi
4:00 PM52 °FOvercast.2 mph85%30.22 "Hg6 mi
3:00 PM51 °FOvercast.2 mph89%30.22 "Hg6 mi
2:00 PM49 °FLow clouds.2 mph94%30.23 "Hg3 mi
1:00 PM48 °FDrizzle. Low clouds.3 mph95%30.24 "Hg2 mi
12:00 PM49 °FOvercast.2 mph84%30.24 "Hg5 mi
11:00 AM49 °FFog.3 mph87%30.24 "Hg4 mi
10:00 AM47 °FFog.3 mph90%30.23 "Hg4 mi
9:00 AM46 °FOvercast.1 mph94%30.22 "Hg6 mi
Weather by CustomWeather, © 2014

See weather overviewHow to use our weather pages